Погода Остров Хейса

Погода Остров Хейса : погода сейчас, прогноз погоды и архив. Всё, что Вы хотите узнать о погоде Остров Хейса!

Поиск расширенной информации на нашем сайте:

Другие новости

Новости СМИ2

Главная страница сайта

Новости сайта

03.07.2017

Напоминаем, что на нашем специализированном сайте Метеоцентр.Азия вы можете получить высокодетализированные автоматические прогнозы погоды по пунктам России, СНГ и мира в авиационном формате (включающие направление и скорость ветра, видимость, явления погоды, количество и форму облачности, нижнюю и верхнюю границу облачности).

Рекомендуем: Свадебные арки в Киеве - http://flordekor.com.ua/index.php?p=9 Флордекор.

Погода Остров Хейса - сегодня

Время (UTC), дата Ветер
(°,м/с) 
Видим.   Явления Облачность Т
(°С)
Тd
(°С)
f(%) Тe
(°С)
Pmin
(гПа)
dP
(гПа)
Po
(мм)
O2
(г/м3)
Тmin Tmax R s Состояние
почвы
15 23.07.17 280 (З) 10{18}  20000 м    9/9 480 м 
[Sc]
+0.8 -0.3 92 -4  1007.3  753  303           
21 23.07.17 260 (З) 12{19}  20000 м    9/9 570 м 
[Sc]
+1 -0.4 90 -4  1008.1  0.5  754  303           
00 24.07.17 280 (З) 11{19}  20000 м    9/6 630 м средняя 
[Sc|Ac trans]
+1.2 +0.2 93 -4  1010.6  2.5  756  303           
03 24.07.17 300 (СЗ) 9{16}  20000 м    8/6 420 м средняя 
[Sc|Ac trans]
+1.2 -0.1 91 -3  1011.2  0.6  756  303           
12 24.07.17 300 (СЗ) 5{12}  20000 м    9/9 450 м 
[Sc]
+1.2 +0 92 -2  1014.1  0.5  758  304           
15 24.07.17 270 (З) 9{13}  20000 м    9/9 870 м 
[Sc]
+2.3 +0.5 88 -2  1012.4  -1.6  757  302           
21 24.07.17 270 (З) 9{13}  20000 м    9/5 600 м средняя, верхняя 
[Sc|Ac trans|Ci fib]
+0.6 -0.5 92 -4  1011.4  -0.5  756  304           
00 25.07.17 250 (З) 6{13}  20000 м    9/9 720 м 
[Sc]
+1 -0.3 91 -2  1012.1  0.7  757  304           
03 25.07.17 280 (З) 20000 м    6/6 420 м 
[Sc]
+1.8 +0.1 88 -2  1011.7  -0.5  757  303           
06 25.07.17 290 (З) 20000 м    4/4 300 м 
[Sc]
+1.5 +0.1 90 -1  1012.1  0.5  757  303           
09 25.07.17 320 (СЗ) 20000 м    3/3 300 м 
[Sc]
+1 -0.3 91 1012.7  0.5  757  304           
12 25.07.17 340 (С) 20000 м    6/4 300 м средняя 
[Sc|Ac trans]
+1.5 +0.1 90 +1  1013.7  758  304           
15 25.07.17 340 (С) 20000 м    9/9 500 м 
[Sc]
+1.1 -0.1 92 1013.8  0.1  758  304           
18 25.07.17 340 (С) 20000 м    9/9 450 м 
[Sc]
+0.4 -0.6 93 1014.3  0.6  759  305    +1.9       
21 25.07.17 360 (С) 20000 м    9/9 360 м 
[Sc]
-0.2 -1.1 94 -2  1014.7  0.4  759  306           
00 26.07.17 340 (С) 20000 м    9/9 450 м 
[Sc]
-0.4 -1.7 91 -1  1015.3  0.6  759  307           
03 26.07.17 290 (З) 20000 м    9/9 400 м 
[Sc]
-0.6 -1.9 91 -1  1015.3  759  307           
06 26.07.17 300 (СЗ) 20000 м    8/8 500 м 
[Sc]
-0.1 -1.6 90 -1  1015.4  0.1  759  306           
09 26.07.17 270 (З) 20000 м    9/9 420 м 
[Sc]
+0.3 -1 91 -2  1015.7  0.4  760  306           
12 26.07.17 300 (СЗ) 20000 м    8/1 300 м верхняя 
[Sc|Ci fib]
+0.7 -0.7 90 1016  0.3  760  305           
15 26.07.17 040 (СВ) 20000 м    4/0 верхняя 
[Ci fib]
+0.8 -0.7 90 +1  1015.9  -0.1  760  305           
18 26.07.17 270 (З) 20000 м    ясно 
+0.6 -0.7 91 -1  1015.8  -0.1  760  306    +1.1       
21 26.07.17 300 (СЗ) 20000 м    3/0 верхняя 
[Ci fib]
+0.1 -0.6 95 -1  1015.8  -0.1  760  306           
00 27.07.17 110 (В) 20000 м    3/0 верхняя 
[Ci fib]
+0.5 -0.5 93 +1  1015.3  -0.4  759  305           
03 27.07.17 230 (ЮЗ) 4000 м  дымка  8/8 210 м 
[St]
-0.2 -0.7 96 -2  1014.8  -0.6  759  306           
Время (UTC), дата Ветер
(°,м/с) 
Видим.   Явления Облачность Т
(°С)
Тd
(°С)
f(%) Тe
(°С)
Pmin
(гПа)
dP
(гПа)
Po
(мм)
O2
(г/м3)
Тmin Tmax R s Состояние
почвы

Для получения пояснительной информации подведите курсор к названию столбца.

ПОГОДА Остров Хейса - архив

Всё, что Вы хотите узнать о погоде Остров Хейса - удобно и подробно!

Выберите нужную дату (начиная с 1 января 2015* года) и нажмите кнопку "Найти".
Будут отображены архивные сводки погоды по пункту Остров Хейса, начиная с указанной даты.


Отображать данные в формате CSV (для использования в таблицах Excel)


Внимание! Наш архив погоды предназначен исключительно для личного некоммерческого использования в познавательных целях. Если Вам необходимы официальные справки о состоянии погоды (для производственных, юридических, коммерческих и т.п. целей), обращайтесь в органы Росгидромета.

*Примечание: данная дата относится к архиву по метеостанциям СССР (Россия, СНГ, Балтия).
Архив по метеостанциям Зарубежной Европы и Азии (кроме Китая) хранится 10 дней, по другим регионам земного шара (Китай, Африка, Америка, Австралия, Океания) - 1 день.

Остров Хейса - район местоположения метеостанции


Название, широта, долгота, высота метеостанции:
Остров Хейса (Обсерватория Им.Кренкеля) 80.6°ш. 58.1°д. 22 м над ур. моря [Российская Федерация]

Дополнительная информация

В oтличие oт бoльшинства пoгoдных сайтoв мы публикуем пoдрoбную метеoинфoрмацию в детальнoм прoфессиoнальнoм фoрмате.

Характеристики температуры и влажнoсти вoздуха измеряются на высoте 2 м в тени вдали oт зданий и деревьев.
Скoрoсть ветра измеряется на высoте 10 м (на урoвне рoста челoвека скoрoсть ветра ниже в 1.5-2 раза). Если метеoстанция нахoдится в гoрoде или в лесу, тo скoрoсть ветра занижена на 2-4 м/с пo сравнению с oткрытым местoм. Скoрoсть ветра над акватoриями крупных рек и oзёр, а также на вершинах хoлмoв на 2-5 м/с выше, чем в oбычных услoвиях.
Атмoсфернoе давление в разных тoчках местнoсти мoжет значительнo oтличаться oт давления на метеoстанции, в зависимoсти oт услoвий рельефа (при пoдъёме на 10 м давление пoнижается примернo на 1 мм рт.ст.).